sat.trackr.live / text

‹ back to catalog

DEMO8 (TENZING)

NORAD 48951 · 2021-059CA

PAYLOAD ACTIVE UNKNOWN

§ Identity

Operator
Country
US
Launch date
2021-06-30
Launch site
AFETR
Launch vehicle
Mass (kg)
RCS (m²)

External: N2YO · Heavens-Above · Gunter

§ Orbital elements

Epoch: 2026-05-25T01:37:54.709248Z

Period
92.66 min
Inclination
97.7042°
Eccentricity
0.0008148
Mean motion
15.54003841 rev/d
Perigee alt
399.5 km
Apogee alt
410.6 km
Semi-major
6,783.2 km
B*
2.9800e-4
RAAN
336.7437°
Arg perigee
75.6392°
Mean anomaly
284.5765°
Rev number
27,371

§ Raw data

DEMO8 (TENZING)1 48951U 21059CA  26145.06799432  .00019205  00000+0  29800-3 0  99902 48951  97.7042 336.7437 0008148  75.6392 284.5765 15.54003841273712

JSON: /api/v1/satellites/48951 · /tle

For live sub-satellite position, see the globe view (requires WebGL).

§ Visibility from observer

Set your observer location to see the next 7 days of passes ≥ 10°. The values pass through the URL so the page stays shareable.

No JS? Fill the form by hand. The geolocation button needs JavaScript.

§ Radio — SatNOGS DB

ModeDescriptionDownlinkUplink
FM Mode U 400.502 MHz
FM Mode U - FM 400.500 MHz

2 transmitters · refreshed weekly from db.satnogs.org